Temperature
6 7 6 6 7 6 6 5 5 6 7 8 8 8 9 9 10 9 9 9 8 8 7 6 6 5 5 5 4 4 4 4 4 4 4 4 4 4 4 3 4 3 3 3
7 7 7 7 7 6 6 6 6 7 7 8 9 9 9 9 9 9 9 9 8 8 7 6 5 5 4 4 4 3 3 3 3 3 3 3 3 3 2 3 3 2 2 2
5 6 6 5 6 7 6 6 7 7 8 8 8 8 9 9 9 9 9 9 8 7 7 6 5 4 4 3 3 3 3 3 3 2 2 2 2 2 2 1 2 1 1 1
5 6 5 6 7 7 7 7 7 7 8 8 8 10 10 10 10 10 10 9 8 7 6 5 4 3 3 3 2 2 2 2 2 2 2 1 1 1 1 1 1 1 1 1
4 4 5 6 8 7 7 7 7 7 8 8 9 8 8 9 10 10 9 9 8 7 6 5 4 3 2 2 2 1 1 1 1 1 1 1 1 0 0 0 -0 0 0 -0
5 5 5 7 8 9 8 7 8 7 7 7 7 6 7 9 9 9 8 7 7 6 5 4 3 2 2 1 1 1 1 1 1 1 0 0 0 -0 -0 -0 -0 -0 -1 -1
5 5 5 7 8 8 7 7 8 8 8 8 7 8 9 9 8 8 7 6 6 5 4 3 2 2 1 1 1 1 1 0 0 0 0 -0 -0 -0 -0 -1 -1 -1 -1 -1
5 5 6 7 7 7 7 8 8 8 8 8 8 8 8 8 8 7 6 6 5 4 3 3 2 2 1 1 1 0 0 0 0 0 -0 -0 -0 -0 -1 -1 -1 -1 -1 -2
5 6 7 8 8 9 9 9 9 9 9 8 8 8 8 7 7 6 6 5 4 4 3 2 2 2 1 1 0 0 0 0 -0 -0 -0 -0 -0 -1 -1 -1 -1 -1 -2 -2
5 5 7 8 9 9 9 9 9 9 8 8 8 8 7 7 6 6 5 4 4 3 3 3 2 2 1 1 0 0 0 -0 -0 -0 -0 -0 -1 -1 -1 -1 -1 -2 -2 -2
5 6 7 8 9 9 9 8 8 8 8 8 8 7 7 6 6 5 5 4 4 3 3 3 2 2 1 1 0 0 0 -0 -0 -0 -0 -1 -1 -1 -1 -1 -1 -2 -2 -2
5 6 6 8 9 9 8 8 8 8 7 7 7 7 6 6 6 5 4 4 3 3 3 3 2 2 1 1 0 0 0 0 -0 -0 -0 -1 -1 -1 -1 -1 -1 -2 -2 -2
8 8 8 8 8 8 8 8 7 7 7 7 6 6 6 5 5 5 4 4 3 3 3 2 2 2 1 1 1 0 0 0 0 -0 -0 -0 -1 -1 -1 -1 -1 -2 -2 -2
7 7 7 7 7 7 7 7 7 7 6 6 6 5 5 5 4 4 4 4 3 3 2 2 2 2 2 1 1 1 0 0 -0 -0 -0 -0 -1 -1 -1 -1 -1 -2 -2 -2
6 7 7 7 7 6 6 6 6 6 5 5 5 5 5 4 4 4 4 3 3 2 2 2 2 2 1 1 1 0 0 0 -0 -0 -0 -1 -1 -1 -1 -1 -2 -2 -2 -2
6 6 6 6 6 6 5 5 5 5 4 4 4 4 4 4 3 3 3 3 3 3 3 2 2 2 1 1 1 0 0 -0 -0 -0 -1 -1 -1 -1 -1 -1 -2 -2 -2 -2
5 5 5 5 5 5 4 4 4 4 4 4 4 3 3 3 3 3 3 3 2 2 2 2 2 1 1 1 0 0 -0 -0 -0 -1 -1 -1 -1 -1 -1 -2 -2 -2 -2 -3
4 5 5 5 4 4 4 3 3 3 3 3 3 3 3 3 3 3 2 2 2 2 1 1 1 1 1 1 0 -0 -0 -0 -0 -1 -1 -1 -1 -1 -1 -2 -2 -2 -2 -3
3 3 3 3 3 3 2 2 2 2 2 2 2 2 2 2 2 2 2 1 1 1 1 1 1 1 1 0 -0 -0 -0 -1 -1 -1 -1 -1 -1 -1 -2 -2 -2 -2 -3 -3
2 2 2 2 2 2 2 2 2 2 2 2 1 1 1 1 1 1 1 1 1 1 1 0 0 0 0 -0 -0 -0 -1 -1 -1 -1 -1 -1 -1 -1 -2 -2 -2 -2 -3 -3
1 1 1 1 1 1 1 1 1 1 1 1 1 1 1 0 0 0 0 0 0 0 0 -0 -0 0 -0 -0 -1 -1 -1 -1 -1 -1 -1 -1 -2 -2 -2 -2 -2 -3 -3 -3
0 0 1 1 1 1 1 1 1 1 0 0 -0 -0 -0 -0 -0 -0 -0 -0 -0 -1 -1 -1 -0 -0 -0 -1 -1 -1 -1 -1 -1 -2 -2 -2 -2 -2 -2 -2 -3 -3 -3 -3
-0 -0 0 -0 0 0 -0 -0 -0 -0 -0 -0 -1 -1 -1 -1 -1 -1 -1 -1 -1 -1 -1 -1 -1 -1 -1 -1 -1 -1 -1 -2 -2 -2 -2 -2 -2 -3 -3 -3 -3 -3 -3 -4
-0 -0 -0 -0 -0 -1 -0 -0 -1 -1 -1 -1 -1 -1 -1 -1 -2 -2 -2 -2 -2 -1 -1 -2 -2 -2 -2 -2 -2 -2 -2 -2 -2 -2 -2 -3 -3 -3 -3 -3 -3 -4 -4 -4
-1 -1 -1 -0 -1 -1 -1 -1 -1 -1 -1 -2 -2 -2 -2 -2 -2 -2 -2 -2 -2 -2 -2 -2 -2 -2 -2 -2 -2 -2 -2 -2 -3 -3 -3 -3 -3 -3 -4 -4 -4 -4 -4 -4
-1 -1 -1 -1 -1 -1 -1 -1 -1 -1 -2 -2 -2 -2 -2 -2 -2 -2 -2 -2 -2 -2 -2 -2 -3 -3 -3 -3 -3 -3 -3 -3 -3 -4 -4 -4 -4 -4 -4 -4 -4 -5 -5 -5
-1 -1 -1 -1 -1 -1 -1 -2 -2 -2 -2 -2 -2 -2 -2 -3 -3 -3 -3 -3 -3 -3 -3 -3 -3 -3 -3 -3 -4 -4 -4 -4 -4 -4 -4 -4 -4 -5 -5 -5 -5 -5 -5 -5
Wind_Speed
4 3 5 6 7 9 10 9 9 8 8 8 9 10 10 10 9 8 8 9 9 9 7 7 6 6 6 5 5 6 6 6 6 5 6 6 7 7 7 8 8 8 8 8
2 4 4 6 9 11 12 10 10 8 9 8 6 6 7 8 10 10 10 10 10 9 9 8 8 7 6 6 5 6 6 6 5 6 6 6 6 7 7 8 8 8 8 8
3 3 2 8 11 14 9 8 9 14 12 5 5 9 11 11 11 11 11 10 10 10 9 9 8 8 7 6 6 6 6 6 5 6 6 6 6 7 7 6 6 7 7 7
2 0 7 9 5 8 10 11 11 9 7 9 11 9 7 8 11 10 10 10 10 9 8 8 7 7 7 7 7 6 6 6 5 6 6 6 6 6 5 5 5 5 6 6
3 4 8 9 5 6 7 8 11 13 9 7 5 3 2 4 6 8 8 8 8 8 8 8 9 8 8 7 7 6 6 5 5 6 6 6 5 5 4 4 4 4 4 5
4 3 6 6 3 2 3 6 5 9 10 8 8 6 6 5 5 5 7 7 8 8 8 9 8 8 9 8 7 7 6 6 6 5 6 6 5 4 3 3 3 4 4 3
5 5 8 7 3 4 3 6 3 3 6 8 9 6 4 6 6 6 7 7 8 9 8 8 8 9 9 8 7 6 6 6 6 5 6 6 5 4 4 4 3 3 3 2
6 7 9 4 6 6 7 2 1 2 4 5 5 4 6 6 7 8 7 7 8 8 7 7 8 9 8 8 7 7 7 6 6 6 5 5 5 4 4 4 4 3 2 1
8 9 6 5 7 6 5 4 3 3 3 5 5 5 5 6 7 7 8 8 7 8 8 6 7 9 9 8 8 8 7 7 6 6 5 5 5 5 4 4 3 3 2 2
5 8 7 6 5 4 5 5 5 5 5 6 5 6 6 6 7 7 8 8 7 9 9 8 7 8 8 9 9 8 8 7 6 6 5 5 4 4 4 4 4 4 3 3
6 6 4 5 6 6 4 4 4 3 4 5 6 5 6 6 7 7 7 8 8 9 10 9 8 8 8 9 9 8 8 7 6 6 6 5 4 4 5 4 5 5 4 4
8 7 6 6 5 5 6 6 6 5 3 3 4 5 5 6 6 7 8 8 9 9 9 9 9 9 9 10 10 10 8 7 6 6 5 5 4 2 5 5 7 7 7 6
8 6 5 4 3 3 5 5 5 5 4 3 3 4 5 5 5 6 7 9 10 10 10 9 10 10 10 10 11 10 9 8 6 6 6 6 5 5 3 3 5 6 7 8
5 3 3 5 5 4 4 4 4 3 2 2 2 2 3 3 4 6 8 9 8 8 9 10 10 10 10 11 11 10 9 10 9 7 7 6 6 6 5 4 3 3 5 8
5 5 5 4 4 4 3 4 3 2 2 1 2 2 3 4 5 6 6 6 7 8 9 9 10 10 9 11 11 10 9 7 7 7 6 6 6 6 5 5 5 4 3 4
4 3 4 5 6 5 4 4 4 3 2 2 2 3 4 4 4 4 4 6 8 9 9 10 10 9 10 11 11 9 9 12 10 7 7 6 6 6 6 6 6 5 5 5
5 5 5 5 6 5 4 4 3 3 2 3 3 3 3 3 3 4 4 5 7 7 8 9 9 8 9 11 11 8 8 9 13 8 7 7 7 7 7 6 6 6 6 7
4 5 5 5 5 5 4 2 2 2 2 3 3 2 3 4 5 5 4 4 4 5 6 6 6 7 9 10 9 8 8 7 8 8 8 8 7 7 7 7 8 8 6 6
3 4 4 4 4 4 3 2 1 1 2 2 2 3 4 4 4 4 3 4 6 7 5 5 8 8 8 10 10 7 8 8 8 7 7 10 9 7 7 8 8 8 7 6
5 5 6 5 4 3 2 1 1 1 1 2 2 2 3 3 3 3 4 5 5 4 3 4 6 6 7 8 10 7 8 9 9 8 8 8 8 8 8 8 8 8 7 7
5 5 5 4 4 3 2 2 1 1 2 2 1 2 3 3 3 2 3 4 3 2 2 5 5 5 6 7 10 7 8 8 8 8 8 8 9 9 9 8 8 8 8 7
3 3 3 3 3 2 2 2 2 2 2 2 2 2 2 2 2 2 3 3 2 2 2 3 3 6 7 8 6 7 8 8 8 7 8 8 8 9 9 9 9 8 8 7
2 2 2 1 1 1 1 2 2 2 2 2 2 2 2 2 2 2 3 2 2 3 3 3 5 7 9 7 6 7 8 8 8 8 8 8 8 8 8 9 8 8 8 7
2 1 1 1 1 1 0 2 2 2 2 2 2 2 2 2 2 1 2 4 5 5 3 4 6 8 8 5 5 6 7 7 7 7 7 7 7 8 8 8 8 8 8 8
2 2 1 2 2 2 2 1 1 2 2 2 2 3 2 1 2 3 3 3 5 5 3 5 7 7 5 4 5 6 6 7 7 7 7 7 7 8 8 8 8 8 7 7
3 3 3 3 3 2 2 1 1 2 2 2 2 2 2 2 3 3 3 3 5 5 4 3 4 5 4 4 5 5 6 6 8 7 7 7 8 8 7 8 9 8 7 7
3 3 2 3 3 3 2 2 2 2 2 2 3 3 3 3 3 3 3 3 4 4 3 4 4 4 4 4 4 5 5 5 6 6 6 6 6 7 7 8 7 7 6 6
Wind_Direction
229 218 176 202 210 199 201 200 201 228 227 237 213 194 188 186 184 182 185 185 183 179 174 164 154 147 139 130 122 114 104 95 90 82 77 74 70 65 61 61 61 56 57 55
284 247 225 242 231 217 219 218 224 240 251 244 221 193 191 193 189 194 199 196 189 180 173 169 164 156 145 137 131 122 114 107 102 94 88 82 77 73 69 65 61 59 57 55
267 296 340 265 230 218 215 210 201 228 237 223 202 200 201 201 200 205 204 196 188 182 177 172 168 158 153 147 134 125 121 119 115 109 101 91 87 80 74 69 68 63 57 55
211 114 243 246 239 206 217 231 215 223 224 209 212 212 208 201 199 207 201 189 182 173 167 161 156 151 145 142 138 134 132 129 124 118 111 103 95 91 83 76 74 72 63 55
183 238 277 284 253 191 198 252 225 223 225 210 193 155 245 222 196 198 189 174 168 163 157 154 155 152 145 144 143 142 144 142 136 133 127 122 115 111 105 98 89 80 72 63
190 224 252 263 276 174 133 270 254 212 208 189 158 187 234 196 163 155 147 146 149 147 145 152 157 150 147 151 151 155 154 148 142 139 138 137 135 130 120 116 111 100 83 66
204 236 265 258 230 118 173 254 295 189 182 172 185 201 181 149 147 149 146 147 147 149 155 162 158 152 154 157 165 160 148 142 141 142 145 143 139 138 135 126 118 109 97 56
190 221 253 237 151 185 220 231 109 121 144 157 161 137 141 151 154 153 152 153 152 153 158 161 159 156 160 170 165 151 146 146 147 150 151 145 141 143 141 137 132 130 125 92
198 218 241 211 204 218 182 176 182 161 157 151 155 169 168 170 171 171 167 165 161 159 160 165 168 164 169 173 162 155 151 154 155 150 146 147 151 153 147 149 154 164 170 192
236 254 250 240 232 224 198 193 189 176 169 167 176 180 179 177 179 180 177 175 168 166 172 179 179 176 174 168 164 159 161 164 163 158 155 154 158 162 164 171 175 182 193 205
244 262 276 258 225 215 204 184 168 168 176 181 180 187 189 190 192 189 187 181 178 183 187 189 183 182 176 171 166 167 170 172 172 171 167 168 172 184 185 199 193 191 200 200
230 227 217 238 227 195 185 192 187 177 179 182 184 195 194 201 199 193 191 186 188 192 192 190 187 188 183 177 174 172 177 180 179 175 174 174 174 189 217 209 216 215 208 205
232 231 222 226 208 188 185 188 180 180 188 195 197 194 194 200 197 193 194 194 197 197 195 190 189 192 188 182 180 183 184 183 181 180 180 183 183 183 197 233 237 233 229 229
233 194 202 209 200 175 157 148 141 139 154 174 184 187 191 197 196 200 205 205 199 194 193 190 192 198 190 183 184 189 186 188 186 187 187 189 192 194 194 200 220 250 248 244
249 221 203 182 155 145 135 131 137 157 169 179 182 191 200 211 218 218 213 200 191 194 197 195 199 201 186 183 187 189 188 189 189 187 189 192 193 195 200 208 216 226 239 256
217 180 159 162 169 161 153 165 178 199 205 218 225 231 232 232 233 223 204 191 194 205 204 202 207 200 184 185 188 191 196 197 189 188 191 194 196 201 206 212 219 224 229 232
180 189 184 187 185 179 180 185 192 204 215 231 244 250 244 233 230 227 219 210 213 214 207 206 208 192 185 188 190 194 194 197 195 194 199 200 202 207 210 212 220 228 232 232
195 188 177 175 178 174 173 173 185 212 235 251 259 242 228 226 235 239 234 223 221 225 218 210 198 189 192 192 193 193 192 195 195 200 203 206 209 209 210 216 223 231 237 240
101 115 113 113 120 132 141 150 194 263 278 268 252 245 243 243 247 246 228 214 219 231 231 213 202 193 197 198 192 192 194 197 201 205 207 214 216 212 214 219 225 229 233 233
80 87 93 93 89 96 99 81 39 326 312 296 270 263 264 265 258 244 226 226 228 233 211 202 202 203 202 200 196 196 199 203 207 209 209 213 215 217 218 222 226 229 231 233
89 89 91 93 89 83 71 46 14 338 331 325 290 276 276 279 270 241 230 246 256 241 211 210 207 209 203 203 201 201 204 208 211 212 213 216 219 221 222 224 227 229 230 233
96 95 93 91 93 83 51 29 10 350 344 335 322 315 306 299 290 270 245 247 266 264 243 225 223 221 216 211 203 204 209 213 216 215 216 217 220 222 223 223 226 230 231 232
119 112 106 95 92 86 47 23 4 350 338 329 326 321 307 295 280 267 280 292 290 273 263 244 246 242 234 218 208 209 213 217 219 220 220 220 221 222 225 226 227 229 230 231
147 137 131 95 97 122 326 327 333 333 329 325 326 324 319 313 307 292 294 303 302 291 267 265 263 253 242 222 213 215 219 222 223 223 223 223 223 224 226 227 229 228 229 231
172 174 185 192 207 230 253 282 311 325 331 327 326 328 324 300 288 300 304 302 306 303 287 280 275 267 251 232 222 223 224 226 227 224 223 225 225 226 227 227 228 229 230 231
200 207 215 219 222 228 231 240 264 290 304 309 313 310 311 308 303 303 302 303 304 306 302 286 281 274 257 242 234 232 231 238 244 237 228 226 227 226 228 228 228 228 229 230
216 220 221 233 235 224 219 226 246 267 277 284 294 299 304 306 306 306 306 304 303 300 296 289 284 276 266 253 245 240 236 234 234 234 231 230 229 229 229 227 228 226 224 226
Height
1487 1484 1486 1487 1486 1487 1491 1492 1495 1487 1483 1476 1475 1475 1476 1478 1480 1483 1484 1486 1487 1488 1489 1489 1489 1490 1490 1489 1489 1489 1488 1488 1488 1487 1487 1486 1485 1485 1484 1484 1483 1482 1481 1481
1485 1483 1483 1484 1481 1482 1482 1482 1483 1481 1478 1472 1471 1473 1474 1476 1477 1479 1480 1482 1483 1484 1485 1486 1486 1487 1487 1487 1487 1487 1487 1486 1486 1486 1486 1485 1485 1485 1484 1484 1483 1483 1482 1481
1492 1485 1483 1485 1474 1474 1475 1473 1474 1474 1470 1469 1470 1470 1471 1472 1474 1475 1477 1478 1479 1480 1481 1482 1483 1484 1484 1485 1485 1485 1485 1485 1485 1485 1485 1485 1485 1485 1484 1484 1483 1483 1482 1481
1492 1489 1492 1473 1464 1464 1466 1464 1465 1463 1462 1463 1464 1466 1467 1469 1470 1472 1473 1475 1476 1477 1478 1479 1480 1481 1482 1482 1482 1483 1483 1483 1484 1484 1484 1485 1485 1485 1485 1484 1484 1484 1483 1482
1491 1491 1482 1468 1461 1461 1464 1462 1457 1458 1458 1460 1461 1464 1465 1466 1467 1469 1470 1471 1473 1474 1475 1476 1477 1478 1479 1480 1480 1481 1482 1482 1483 1484 1484 1484 1484 1485 1485 1485 1484 1484 1483 1482
1487 1485 1481 1466 1458 1456 1460 1461 1452 1452 1454 1457 1459 1465 1463 1463 1464 1466 1467 1468 1470 1471 1472 1473 1475 1476 1477 1477 1478 1479 1481 1481 1482 1483 1483 1484 1484 1485 1485 1485 1485 1484 1483 1483
1483 1481 1473 1460 1456 1458 1466 1460 1451 1449 1450 1453 1455 1458 1459 1460 1462 1463 1465 1466 1467 1468 1470 1471 1472 1473 1474 1475 1477 1478 1479 1480 1481 1482 1483 1484 1484 1485 1485 1485 1484 1484 1483 1482
1477 1477 1471 1455 1456 1458 1456 1452 1451 1450 1450 1452 1454 1456 1457 1458 1460 1461 1462 1463 1465 1466 1467 1469 1470 1471 1472 1473 1475 1477 1478 1479 1480 1481 1482 1483 1484 1484 1484 1484 1484 1483 1483 1482
1465 1463 1454 1451 1451 1451 1451 1451 1451 1451 1452 1452 1453 1454 1455 1457 1458 1459 1460 1461 1462 1463 1465 1466 1467 1469 1470 1472 1473 1475 1477 1478 1479 1480 1481 1482 1483 1483 1483 1483 1483 1482 1482 1481
1458 1453 1450 1449 1449 1449 1450 1450 1450 1451 1451 1452 1452 1453 1454 1454 1455 1456 1457 1458 1459 1461 1462 1463 1465 1466 1468 1470 1471 1473 1475 1476 1477 1479 1480 1481 1481 1482 1482 1482 1481 1481 1480 1479
1453 1449 1447 1446 1446 1447 1448 1448 1449 1449 1449 1450 1450 1451 1451 1452 1452 1453 1454 1455 1456 1457 1459 1460 1462 1463 1465 1467 1469 1471 1472 1474 1475 1477 1478 1479 1480 1480 1480 1480 1480 1480 1479 1478
1448 1444 1445 1443 1443 1444 1445 1446 1446 1447 1447 1448 1448 1448 1449 1449 1449 1450 1451 1452 1453 1454 1455 1457 1459 1460 1462 1464 1466 1468 1470 1471 1473 1475 1476 1477 1478 1478 1478 1478 1478 1477 1476 1476
1440 1440 1440 1440 1441 1441 1442 1443 1444 1444 1445 1445 1445 1446 1446 1446 1446 1447 1447 1448 1449 1450 1452 1454 1456 1457 1459 1461 1463 1465 1467 1469 1470 1472 1473 1474 1475 1475 1476 1476 1475 1474 1474 1473
1436 1437 1437 1437 1438 1439 1440 1440 1441 1441 1442 1442 1442 1442 1443 1443 1443 1443 1444 1445 1446 1447 1449 1450 1452 1454 1456 1458 1460 1462 1464 1466 1467 1469 1470 1471 1472 1473 1473 1472 1472 1471 1471 1470
1432 1433 1433 1434 1435 1436 1437 1438 1438 1439 1439 1439 1439 1439 1439 1439 1439 1440 1440 1441 1442 1443 1444 1446 1448 1450 1452 1454 1456 1458 1460 1462 1464 1465 1467 1468 1469 1469 1469 1469 1469 1468 1468 1467
1428 1429 1430 1431 1432 1433 1434 1435 1435 1436 1436 1436 1436 1436 1436 1436 1436 1436 1437 1437 1438 1438 1440 1441 1443 1446 1448 1450 1452 1454 1456 1458 1459 1461 1462 1463 1464 1465 1465 1465 1465 1464 1463 1463
1425 1425 1426 1427 1428 1430 1431 1432 1433 1433 1433 1433 1433 1433 1433 1433 1433 1433 1433 1433 1434 1435 1436 1437 1439 1441 1443 1445 1447 1449 1451 1453 1454 1456 1457 1458 1459 1460 1460 1460 1460 1459 1459 1458
1421 1423 1424 1425 1426 1427 1428 1429 1430 1430 1430 1430 1430 1430 1429 1429 1429 1429 1429 1429 1430 1430 1431 1432 1434 1436 1438 1440 1442 1444 1445 1447 1449 1450 1452 1453 1453 1454 1455 1455 1455 1454 1454 1454
1419 1420 1421 1423 1424 1425 1426 1426 1427 1427 1427 1427 1426 1426 1426 1425 1425 1425 1425 1425 1425 1425 1427 1428 1429 1431 1432 1434 1436 1438 1440 1441 1443 1444 1446 1447 1448 1448 1448 1449 1449 1449 1448 1448
1418 1419 1420 1421 1422 1423 1424 1424 1424 1424 1424 1423 1423 1422 1422 1421 1421 1421 1421 1421 1421 1421 1422 1423 1424 1425 1427 1429 1430 1432 1434 1435 1437 1438 1439 1440 1441 1441 1442 1442 1442 1442 1442 1442
1418 1419 1419 1420 1421 1422 1422 1422 1422 1421 1421 1420 1420 1419 1418 1418 1418 1417 1417 1417 1417 1418 1418 1418 1419 1420 1421 1423 1424 1426 1427 1429 1430 1431 1432 1433 1434 1434 1435 1435 1436 1436 1435 1435
1419 1419 1420 1420 1421 1421 1421 1421 1420 1419 1418 1418 1417 1416 1415 1415 1414 1414 1413 1414 1413 1413 1413 1414 1414 1415 1416 1417 1418 1420 1421 1422 1423 1425 1425 1426 1427 1427 1428 1428 1429 1429 1429 1428
1419 1420 1420 1420 1420 1420 1420 1419 1418 1418 1417 1416 1415 1414 1413 1412 1411 1411 1410 1410 1410 1409 1409 1409 1409 1410 1410 1411 1412 1413 1415 1416 1417 1418 1419 1419 1420 1420 1421 1421 1421 1421 1421 1421
1419 1420 1420 1420 1419 1419 1419 1418 1417 1416 1415 1414 1413 1412 1411 1410 1409 1408 1407 1407 1406 1405 1405 1405 1405 1405 1405 1405 1406 1407 1408 1409 1410 1411 1412 1412 1413 1413 1413 1414 1414 1414 1414 1414
1419 1419 1419 1419 1418 1418 1417 1416 1415 1414 1413 1412 1411 1410 1409 1407 1406 1405 1404 1403 1402 1401 1401 1400 1400 1400 1400 1400 1400 1401 1402 1403 1403 1404 1405 1405 1405 1406 1406 1407 1407 1407 1407 1407
1418 1418 1417 1417 1417 1416 1416 1415 1414 1413 1412 1410 1409 1408 1407 1405 1404 1402 1401 1400 1399 1398 1397 1396 1396 1395 1395 1395 1395 1395 1395 1396 1396 1397 1397 1398 1398 1399 1399 1399 1400 1400 1399 1399
1415 1415 1415 1415 1415 1414 1413 1412 1412 1411 1409 1408 1407 1406 1404 1403 1401 1400 1398 1397 1395 1394 1393 1392 1391 1390 1390 1390 1389 1389 1389 1389 1390 1390 1390 1391 1391 1391 1392 1392 1392 1393 1392 1392